Location: Alpha Ridge Park
(39.3209°N, 76.9128°W)
Time: 18:40:01
(UTC-04:00)

Vanguard 2 Rocket - Pass Details

Date: 23 May 2019
Orbit: 554 x 3326 km, 32.9° (Epoch: 17 June)

Event Time Altitude Azimuth Distance (km) Brightness Sun altitude
Rises 05:15:52 0° 218° (SW) 7,296 - -6.2°
Exits shadow 05:16:58 - 217° (SW) 7,092 10.8 -6.0°
Reaches altitude 10° 05:21:27 10° 211° (SSW) 6,259 10.6 -5.3°
Maximum altitude 05:38:20 38° 153° (SSE) 3,784 10.1 -2.5°
Drops below altitude 10° 05:50:31 10° 92° (E) 4,588 11.7 -0.4°
Sets 05:53:50 0° 84° (E) 5,242 12.4 0.2°
